Luxor, Egypt

6:26 AM EET on September 01, 2016 (GMT +0200)
Luxor International

Weather History for HELX - January, 2013

Change the Weather History Date:

Monday, January 28, 2013

  Actual Average Record
Temperature  
Mean Temperature 60 °F -  
Max Temperature 64 °F 74 °F 84 °F (2007)
Min Temperature 55 °F 47 °F 39 °F (2016)
Degree Days  
Heating Degree Days 6    
Growing Degree Days 10 (Base 50)    
Moisture  
Dew Point 50 °F    
Average Humidity 72    
Maximum Humidity 88    
Minimum Humidity 46    
Precipitation  
Precipitation 0.59 in 0.00 in - ()
Sea Level Pressure  
Sea Level Pressure 29.92 in    
Wind  
Wind Speed 2 mph ()    
Max Wind Speed 9 mph    
Max Gust Speed -    
Visibility 4.6 miles    
Events Rain    
Averages and records for this station are not official NWS values.
T = Trace of Precipitation, MM = Missing Value Source: Averaged Metar Reports

Daily Weather History Graph

Daily Weather History Graph

Search for Another Location

Airport or City:

Trip Planner

Search our weather history database for the weather conditions in past years. The results will help you decide how hot, cold, wet, or windy it might be!

Date:

Astronomy

Jan. 28, 2013 Rise Set
Actual Time 6:34 AM EET 5:30 PM EET
Civil Twilight 6:10 AM EET 5:54 PM EET
Nautical Twilight 5:42 AM EET 6:21 PM EET
Astronomical Twilight 5:15 AM EET 6:49 PM EET
Moon 6:49 PM EET (1/28) 7:01 AM EET (1/28)
Length of Visible Light 11h 44m
Length of Day
10h 55m
Full, 98% of the Moon is Illuminated
Jan 28
Full
Feb 3
Last Quarter
Feb 10
New
Feb 17
First Quarter
Feb 25
Full

Hourly Weather History & Observations

Time (EET) Temp. Dew Point Humidity Pressure Visibility Wind Dir Wind Speed Gust Speed Precip Events Conditions
12:00 AM 66.2 °F 44.6 °F 46% 29.92 in - South 3.5 mph - N/A   Clear
1:00 AM 62.6 °F 46.4 °F 55% 29.89 in - Calm Calm - N/A   Clear
2:00 AM 63 °F 51 °F 56% 29.90 in 6 mi Calm Calm - -   Overcast
2:00 AM 62.6 °F 51.8 °F 68% 29.89 in - Calm Calm - N/A   Clear
3:00 AM 62.6 °F 48.2 °F 59% 29.86 in - Calm Calm - N/A   Clear
4:00 AM 59.0 °F 53.6 °F 82% 29.89 in 3.7 mi SW 3.5 mph - N/A Rain Rain
5:00 AM 59.0 °F 53.6 °F 82% 29.89 in 3.7 mi WSW 3.5 mph - N/A   Unknown
6:00 AM 59.0 °F 53.6 °F 82% 29.92 in 3.7 mi South 1.2 mph - N/A   Unknown
7:00 AM 57.2 °F 53.6 °F 88% - 3.7 mi SE 2.3 mph - N/A Rain Light Rain
8:00 AM 57 °F 52 °F 79% 29.95 in 4 mi SE 2.3 mph - - Rain Rain
8:00 AM 57.2 °F 51.8 °F 82% 29.95 in 3.7 mi SE 2.3 mph - N/A   Unknown
9:00 AM 55.4 °F 51.8 °F 88% 29.98 in 3.1 mi SW 3.5 mph - N/A   Mist
10:00 AM 57.2 °F 51.8 °F 82% 29.95 in 5.0 mi South 4.6 mph - N/A   Unknown
11:00 AM 55.4 °F 50.0 °F 82% 29.92 in 5.0 mi SSE 4.6 mph - N/A Rain Rain
12:00 PM 55.4 °F 50.0 °F 82% 29.92 in 5.0 mi Calm Calm - N/A Rain Rain
1:00 PM 57.2 °F 50.0 °F 77% 29.89 in 6.2 mi SW 2.3 mph - N/A   Mostly Cloudy
2:00 PM 61 °F 50 °F 59% 29.89 in 6 mi SW 3.5 mph - -   Partly Cloudy
2:00 PM 60.8 °F 50.0 °F 68% 29.89 in - SW 3.5 mph - N/A   Clear
3:00 PM 62.6 °F 50.0 °F 63% 29.86 in - SW 9.2 mph - N/A   Clear
4:00 PM 64.4 °F 50.0 °F 59% 29.86 in - SW 3.5 mph - N/A   Clear
5:00 PM 62.6 °F 48.2 °F 59% 29.89 in - Calm Calm - N/A   Clear
6:00 PM 62.6 °F 50.0 °F 63% 29.86 in - East 2.3 mph - N/A   Clear
7:00 PM 57.2 °F 50.0 °F 77% 29.92 in - West 2.3 mph - N/A   Clear
8:00 PM 56 °F 52 °F 82% 29.96 in 6 mi West 2.3 mph - -  
8:00 PM 57.2 °F 51.8 °F 82% 29.95 in - West 2.3 mph - N/A   Clear
9:00 PM 55.4 °F 51.8 °F 88% 29.98 in - WSW 3.5 mph - N/A   Clear
10:00 PM 59.0 °F 46.4 °F 63% 30.01 in - NNW 3.5 mph - N/A   Clear
11:00 PM 57.2 °F 44.6 °F 63% 30.04 in - NNW 5.8 mph - N/A   Clear